This is the latest recevied weather packets stored in our database for station/object 4S6DRJ-13. If no packets are shown the sender has not sent any weather packets the latest 10 day(s).
| Time | Temp. | Humidity | Pressure | Rain* | Wind** | Luminosity | Snow |
|---|---|---|---|---|---|---|---|
| 1788317315 | 28.89° C | 80% | 1010.3 hPa | 0 mm | 0.89 m/s, 19° | 568 W/m² | - |
| 1788317253 | 28.89° C | 79% | 1010.3 hPa | 0 mm | 1.34 m/s, 274° | 139 W/m² | - |
| 1788317192 | 28.89° C | 79% | 1010.4 hPa | 0 mm | 0.89 m/s, 179° | 580 W/m² | - |
| 1788317131 | 28.89° C | 79% | 1010.4 hPa | 0 mm | 1.79 m/s, 95° | 155 W/m² | - |
| 1788317070 | 28.89° C | 78% | 1010.3 hPa | 0 mm | 1.79 m/s, 197° | 295 W/m² | - |
| 1788317009 | 29.44° C | 79% | 1010.3 hPa | 0 mm | 1.79 m/s, 183° | 127 W/m² | - |
| 1788316948 | 29.44° C | 78% | 1010.1 hPa | 0 mm | 1.79 m/s, 233° | 124 W/m² | - |
| 1788316887 | 29.44° C | 79% | 1010.2 hPa | 0 mm | 0.89 m/s, 255° | 134 W/m² | - |
| 1788316826 | 29.44° C | 79% | 1010.2 hPa | 0 mm | 1.34 m/s, 324° | 187 W/m² | - |
| 1788316765 | 29.44° C | 80% | 1010.2 hPa | 0 mm | 2.24 m/s, 181° | 275 W/m² | - |
| 1788316705 | 28.89° C | 80% | 1010.2 hPa | 0 mm | 0.89 m/s, 199° | 569 W/m² | - |
| 1788316643 | 28.89° C | 80% | 1010.1 hPa | 0 mm | 0.45 m/s, 160° | 575 W/m² | - |
| 1788316582 | 28.89° C | 80% | 1010.3 hPa | 0 mm | 1.34 m/s, 244° | 445 W/m² | - |
| 1788316521 | 28.89° C | 79% | 1010.1 hPa | 0 mm | 0.89 m/s, 228° | 448 W/m² | - |
| 1788316460 | 28.89° C | 79% | 1010.2 hPa | 0 mm | 0.45 m/s, 242° | 139 W/m² | - |
| 1788316399 | 28.89° C | 79% | 1010 hPa | 0 mm | 0.89 m/s, 230° | 133 W/m² | - |
| 1788316337 | 28.89° C | 79% | 1010.2 hPa | 0 mm | 2.24 m/s, 348° | 198 W/m² | - |
| 1788316277 | 29.44° C | 79% | 1009.9 hPa | 0 mm | 0.89 m/s, 282° | 469 W/m² | - |
| 1788316216 | 29.44° C | 80% | 1010 hPa | 0 mm | 2.24 m/s, 231° | 204 W/m² | - |
| 1788316155 | 28.89° C | 80% | 1010.3 hPa | 0 mm | 1.34 m/s, 290° | 483 W/m² | - |
| 1788316093 | 28.89° C | 80% | 1010 hPa | 0 mm | 1.34 m/s, 295° | 512 W/m² | - |
| 1788316033 | 28.89° C | 81% | 1010.1 hPa | 0 mm | 0.89 m/s, 36° | 493 W/m² | - |
| 1788315971 | 28.89° C | 81% | 1010.1 hPa | 0 mm | 0.89 m/s, 221° | 245 W/m² | - |
| 1788315911 | 28.89° C | 80% | 1010.1 hPa | 0 mm | 0.89 m/s, 233° | 446 W/m² | - |
| 1788315850 | 28.89° C | 81% | 1010.1 hPa | 0 mm | 1.79 m/s, 222° | 420 W/m² | - |
* Rain latest hour (hover to see other rain measurements)
** Current wind speed in m/s (hover to see current wind gust speed)